Location: Johnson City
(36.3130°N, 82.3540°W)
Time: 20:42:25
(UTC-05:00)

Envisat - Visible Passes

Search period start: 07 December 2021 00:00
Search period end: 17 December 2021 00:00
Orbit: 764 x 766 km, 98.2° (Epoch: 07 December)

Date Brightness Start Highest point End Pass type
(mag) Time Alt. Az. Time Alt. Az. Time Alt. Az.
07 Dec 3.0 05:25:17 10° NNE 05:30:23 82° ESE 05:35:27 10° S visible
08 Dec 4.5 04:48:50 10° NNE 04:53:26 34° E 04:58:01 10° SSE visible
08 Dec 4.0 06:28:11 10° NNW 06:32:14 24° WNW 06:36:16 10° WSW visible
08 Dec 5.7 17:40:22 10° SSW 17:44:23 23° W 17:48:24 10° NW visible
09 Dec 5.8 04:13:34 10° ENE 04:16:19 14° E 04:19:02 10° SE visible
09 Dec 3.0 05:50:40 10° N 05:55:38 55° WNW 06:00:34 10° SSW visible
10 Dec 3.4 05:13:46 10° NNE 05:18:49 63° E 05:23:49 10° S visible
10 Dec 4.5 06:54:40 10° NNW 06:57:15 14° WNW 06:59:49 10° W visible
10 Dec 6.2 18:07:44 10° WSW 18:09:55 13° W 18:12:05 10° WNW visible
11 Dec 5.0 04:37:34 10° NE 04:41:49 26° E 04:46:02 10° SSE visible
11 Dec 3.7 06:16:21 10° N 06:20:46 31° WNW 06:25:11 10° SW visible
12 Dec 6.1 04:03:27 10° ENE 04:04:38 11° E 04:05:48 10° ESE visible
12 Dec 2.8 05:39:02 10° N 05:44:06 72° WNW 05:49:08 10° SSW visible
13 Dec 3.9 05:02:19 10° NNE 05:07:14 48° E 05:12:07 10° S visible
13 Dec 4.3 06:42:28 10° NNW 06:45:49 18° WNW 06:49:10 10° WSW visible
13 Dec 5.9 17:55:03 10° SW 17:58:14 17° W 18:01:27 10° NW visible
14 Dec 5.3 04:26:26 10° NE 04:30:10 20° E 04:33:54 10° SE visible
14 Dec 3.4 06:04:34 10° N 06:09:18 40° WNW 06:14:00 10° SW visible
15 Dec 2.9 05:27:27 10° NNE 05:32:34 88° ESE 05:37:38 10° SSW visible
16 Dec 4.4 04:50:57 10° NNE 04:55:38 37° E 05:00:18 10° SSE visible
16 Dec 4.0 06:30:28 10° NNW 06:34:23 23° WNW 06:38:17 10° WSW visible
16 Dec 5.8 17:42:44 10° SW 17:46:36 22° W 17:50:28 10° NW visible
